#timestamp,LO_Frequency,Hit,StdDev 
1543374015.3,286047000.6,N
1543374035.2,286046999.1,N
1543374055.0,286046999.4,N
1543374055.9,286046999.4,N
1543374075.8,286046998.6,N
1543374095.6,286046997.1,N
1543374115.4,286046999.1,N
1543374135.3,286046999.1,N
1543374155.1,286047000.7,N
1543374175.8,286047000.4,N
1543374195.7,286046998.9,N
1543374215.5,286046999.2,N
1543374235.4,286046998.7,N
1543374255.2,286046998.6,N
1543374275.0,286046999.1,N
1543374275.9,286046999.1,N
1543374295.8,286046996.9,N
1543374315.6,286046997.4,N
1543374335.4,286047001.1,N
1543374355.3,286046999.3,N
1543374375.1,286046996.6,Y
1543374395.9,286046998.3,P
1543374415.7,286047001.2,P
1543374435.5,286047002.8,N
1543374455.4,286047000.5,N
1543374475.2,286046998.3,N
1543374495.1,286047000.2,N
1543374496.0,286047000.2,N
1543374515.8,286047000.1,N
1543374535.6,286047001.3,N
1543374555.5,286047001.9,N
1543374575.3,286047004.3,Y
1543374595.1,286047002.7,P
1543374615.9,286047000.3,N
1543374635.7,286047000.0,N
1543374655.6,286047000.2,N
1543374675.4,286047002.4,N
1543374695.2,286047002.3,N
1543374715.1,286046999.8,N
1543374716.0,286046999.8,N
1543374735.8,286047000.1,N
1543374755.7,286047001.6,N
1543374775.5,286047001.3,N
1543374795.3,286047002.6,N
1543374815.2,286047002.1,N
1543374835.9,286047002.0,N
1543374855.7,286047004.1,Y
1543374875.6,286047001.5,P
1543374895.4,286047001.7,P
1543374915.3,286047003.0,P
1543374935.1,286047002.9,Y
1543374955.8,286047004.3,P
1543374975.7,286047002.2,N
1543374995.5,286047001.9,N
1543375015.4,286047002.6,N
1543375035.2,286047002.6,N
1543375055.0,286047001.4,N
1543375055.9,286047001.4,N
1543375075.8,286047001.4,N
1543375095.6,286047004.1,Y
1543375115.5,286047002.3,P
1543375135.3,286047001.8,P
1543375155.1,286047006.0,P
1543375175.9,286047004.1,N
1543375195.7,286047003.2,N
1543375215.6,286047006.8,Y
1543375235.4,286047006.0,P
1543375255.2,286047003.4,N
1543375275.1,286047003.3,N
1543375276.0,286047003.3,N
1543375295.8,286047005.8,Y
1543375315.6,286047002.0,P
1543375335.5,286047001.6,N
1543375355.3,286047002.7,N
1543375375.2,286047002.8,Y
1543375395.9,286046999.0,P
1543375415.7,286046998.2,N
1543375435.6,286046998.6,N
1543375455.4,286046998.5,N
1543375475.3,286047000.4,N
1543375495.1,286047001.3,N
1543375496.0,286047001.3,N
1543375515.8,286047001.8,N
1543375535.7,286046999.7,N
1543375555.5,286047000.1,N
1543375575.3,286047000.3,N
1543375595.2,286047004.0,N
1543375615.0,286047002.6,N
1543375615.9,286047002.6,N
1543375635.8,286046998.9,N
1543375655.6,286046998.6,N
1543375675.4,286047000.0,N
1543375695.3,286047001.3,N
1543375715.1,286047004.4,N
1543375735.9,286047003.8,N
1543375755.7,286047005.2,N
1543375775.5,286047005.4,N
1543375795.4,286047003.3,N
1543375815.2,286047002.9,N
1543375835.0,286047003.2,N
1543375835.9,286047003.2,N
1543375855.8,286047006.0,N
1543375875.6,286047004.7,N
1543375895.5,286047007.4,Y
1543375915.3,286047004.2,P
1543375935.1,286047005.5,P
1543375955.9,286047004.1,N
1543375975.7,286047003.6,N
1543375995.6,286047006.0,Y
1543376015.4,286046999.8,P
1543376035.2,286047001.4,N
1543376055.1,286046999.8,N
1543376056.0,286046999.8,N
1543376075.8,286047000.1,N
1543376095.6,286047000.3,N
1543376115.5,286047000.4,N
1543376135.3,286046999.7,N
1543376155.2,286047001.1,N
1543376175.9,286047002.3,N
1543376195.7,286047004.1,Y
1543376215.6,286047002.1,P
1543376235.4,286047002.7,P
1543376255.2,286047002.5,P
1543376275.1,286047001.6,N
1543376276.0,286047001.6,N
1543376295.8,286047002.3,Y
1543376315.7,286046999.5,P
1543376335.5,286046997.8,N
1543376355.3,286046998.1,N
1543376375.2,286046999.2,N
1543376395.0,286046999.1,N
1543376395.9,286046999.1,N
1543376415.8,286046999.0,N
1543376435.6,286047000.7,N
1543376455.4,286046998.1,N
1543376475.3,286046999.4,N
1543376495.1,286046999.3,N
1543376515.8,286046999.4,N
1543376535.7,286046996.6,Y
1543376555.5,286047000.7,P
1543376575.4,286046998.9,N
1543376595.2,286046999.4,N
1543376615.0,286046999.5,N
1543376615.9,286046999.5,N
1543376635.8,286046996.5,Y
1543376655.6,286046998.9,P
1543376675.5,286046997.2,P
1543376695.3,286046998.2,N
1543376715.1,286046998.3,N
1543376735.9,286047000.8,N
1543376755.7,286047001.2,N
1543376775.5,286047000.8,N
1543376795.4,286046999.9,N
1543376815.2,286047000.5,N
1543376835.1,286047001.1,N
1543376836.0,286047001.1,N
1543376855.8,286047000.0,N
1543376875.6,286046998.4,N
1543376895.5,286046996.9,N
1543376915.3,286046999.6,N
1543376935.1,286046997.1,N
1543376955.9,286046996.8,N
1543376975.7,286046998.5,N
1543376995.6,286046998.7,N
1543377015.4,286046997.0,N
1543377035.2,286046997.8,N
1543377055.1,286046995.1,Y
1543377056.0,286046995.1,P
1543377075.8,286046997.6,N
1543377095.6,286046997.2,N
1543377115.5,286046996.6,N
1543377135.3,286047001.2,N
1543377155.2,286046998.1,N
1543377175.9,286046999.6,N
1543377195.7,286046998.7,N
1543377215.6,286046998.3,N
1543377235.4,286046998.7,N
1543377255.2,286046998.2,N
1543377275.1,286046995.0,Y
1543377276.0,286046995.0,P
1543377295.8,286046999.0,N
1543377315.7,286046999.6,N
1543377335.5,286047000.4,N
1543377355.3,286047000.9,N
1543377375.2,286046998.6,N
1543377395.0,286046998.5,N
1543377395.9,286046998.5,N
1543377415.7,286046999.4,N
1543377435.6,286046998.3,N
1543377455.4,286047000.8,N
1543377475.3,286046999.3,N
1543377495.1,286046998.8,N
1543377515.8,286046998.5,N
1543377535.7,286046998.8,N
1543377555.5,286046999.3,N
1543377575.4,286046998.1,N
1543377595.2,286046999.0,N
